| time (UTC) | temp F | wind direction | speed MPH | gust MPH | rain 1hr in | rain 24hr in | rain mn in | humidity % | barometer mb |
| 20260507054544 | 45 | 320 | 11.0 | 11.0 | 0.00 | 0.00 | 0.00 | 82 | 1013.0 |
| 20260507051541 | 45 | 320 | 11.0 | 11.0 | 0.00 | 0.00 | 0.00 | 82 | 1013.0 |
| 20260507044540 | 46 | 320 | 11.0 | 11.0 | 0.00 | 0.00 | 0.00 | 82 | 1013.0 |
| 20260507041538 | 46 | 320 | 11.0 | 11.0 | 0.00 | 0.00 | 0.00 | 82 | 1013.0 |
| 20260507034535 | 46 | 320 | 11.0 | 11.0 | 0.00 | 0.00 | 0.00 | 82 | 1013.0 |
| 20260507031534 | 46 | 320 | 11.0 | 11.0 | 0.00 | 0.00 | 0.00 | 82 | 1013.0 |
| 20260507024531 | 46 | 320 | 11.0 | 11.0 | 0.00 | 0.00 | 0.00 | 81 | 1014.0 |
| 20260507021529 | 47 | 320 | 11.0 | 11.0 | 0.00 | 0.00 | 0.00 | 80 | 1014.0 |
| 20260507014527 | 47 | 320 | 11.0 | 11.0 | 0.00 | 0.00 | 0.00 | 82 | 1014.0 |
| 20260507011526 | 48 | 320 | 11.0 | 11.0 | 0.00 | 0.00 | 0.00 | 82 | 1014.0 |
| 20260507004522 | 49 | 320 | 11.0 | 11.0 | 0.00 | 0.00 | 0.00 | 83 | 1014.0 |
| 20260507001520 | 49 | 320 | 11.0 | 11.0 | 0.00 | 0.00 | 0.00 | 83 | 1014.0 |
| 20260506234518 | 49 | 320 | 11.0 | 11.0 | 0.00 | 0.00 | 0.00 | 80 | 1015.0 |
| 20260506231516 | 50 | 320 | 11.0 | 11.0 | 0.00 | 0.00 | 0.00 | 80 | 1014.0 |
| 20260506224514 | 51 | 320 | 11.0 | 11.0 | 0.00 | 0.00 | 0.00 | 81 | 1015.0 |
| 20260506221511 | 51 | 320 | 11.0 | 11.0 | 0.00 | 0.00 | 0.00 | 78 | 1015.0 |
| 20260506214509 | 52 | 320 | 11.0 | 11.0 | 0.00 | 0.00 | 0.00 | 76 | 1015.0 |
| 20260506211508 | 53 | 320 | 11.0 | 11.0 | 0.00 | 0.00 | 0.00 | 77 | 1015.0 |
| 20260506204606 | 54 | 320 | 11.0 | 11.0 | 0.00 | 0.00 | 0.00 | 74 | 1015.0 |
| 20260506201604 | 55 | 320 | 11.0 | 11.0 | 0.00 | 0.00 | 0.00 | 70 | 1014.0 |
| 20260506194601 | 56 | 320 | 11.0 | 11.0 | 0.00 | 0.00 | 0.00 | 63 | 1015.0 |
| 20260506191558 | 57 | 320 | 11.0 | 11.0 | 0.00 | 0.00 | 0.00 | 67 | 1014.0 |
| 20260506184556 | 57 | 320 | 11.0 | 11.0 | 0.00 | 0.00 | 0.00 | 68 | 1014.0 |
| 20260506181554 | 58 | 320 | 11.0 | 11.0 | 0.00 | 0.00 | 0.00 | 69 | 1014.0 |
| 20260506174553 | 58 | 320 | 11.0 | 11.0 | 0.00 | 0.00 | 0.00 | 72 | 1014.0 |
| 20260506171550 | 58 | 320 | 11.0 | 11.0 | 0.00 | 0.00 | 0.00 | 80 | 1014.0 |
| 20260506164549 | 58 | 320 | 11.0 | 11.0 | 0.00 | 0.00 | 0.00 | 82 | 1014.0 |
| 20260506161546 | 58 | 320 | 11.0 | 11.0 | 0.00 | 0.00 | 0.00 | 83 | 1014.0 |
| 20260506154544 | 59 | 320 | 11.0 | 11.0 | 0.00 | 0.00 | 0.00 | 81 | 1014.0 |
| 20260506151541 | 59 | 320 | 11.0 | 11.0 | 0.00 | 0.00 | 0.00 | 75 | 1014.0 |
| 20260506144539 | 59 | 320 | 11.0 | 11.0 | 0.00 | 0.00 | 0.00 | 69 | 1014.0 |
| 20260506141538 | 60 | 320 | 11.0 | 11.0 | 0.00 | 0.00 | 0.00 | 62 | 1015.0 |
| 20260506134535 | 58 | 300 | 15.0 | 15.0 | 0.00 | 0.00 | 0.00 | 61 | 1015.0 |
| 20260506131533 | 58 | 300 | 16.0 | 16.0 | 0.00 | 0.00 | 0.00 | 60 | 1015.0 |
| 20260506124531 | 58 | 310 | 13.0 | 13.0 | 0.00 | 0.00 | 0.00 | 60 | 1015.0 |
| 20260506121528 | 58 | 310 | 13.0 | 13.0 | 0.00 | 0.00 | 0.00 | 59 | 1015.0 |
| 20260506114526 | 58 | 300 | 13.0 | 13.0 | 0.00 | 0.00 | 0.00 | 61 | 1015.0 |
| 20260506111524 | 58 | 300 | 13.0 | 13.0 | 0.00 | 0.00 | 0.00 | 59 | 1014.0 |
| 20260506104522 | 58 | 300 | 13.0 | 13.0 | 0.00 | 0.00 | 0.00 | 59 | 1014.0 |
| 20260506101519 | 58 | 300 | 13.0 | 13.0 | 0.00 | 0.00 | 0.00 | 59 | 1014.0 |
| 20260506094517 | 59 | 310 | 12.0 | 12.0 | 0.00 | 0.00 | 0.00 | 59 | 1014.0 |
| 20260506091516 | 58 | 290 | 10.0 | 10.0 | 0.00 | 0.00 | 0.00 | 59 | 1014.0 |
| 20260506084513 | 59 | 24 | 8.0 | 8.0 | 0.00 | 0.00 | 0.00 | 59 | 1014.0 |
| 20260506081511 | 55 | 0 | 3.0 | 3.0 | 0.00 | 0.00 | 0.00 | 64 | 1014.0 |
| 20260506071509 | 53 | 0 | 2.0 | 2.0 | 0.00 | 0.00 | 0.00 | 88 | 1014.0 |
| 20260506061605 | 50 | 300 | 18.0 | 18.0 | 0.00 | 0.00 | 0.00 | 80 | 1014.0 |